NORTHEAST SUFFOLK  -  Rip Current Statement Rip Current Statement        NORTHERN NASSAU  -  Rip Current Statement Rip Current Statement        NORTHERN QUEENS  -  Rip Current Statement Rip Current Statement     Air Quality Alert Air Quality Alert        NORTHWEST SUFFOLK  -  Rip Current Statement Rip Current Statement        SOUTHEAST SUFFOLK  -  Rip Current Statement Rip Current Statement        SOUTHERN NASSAU  -  Rip Current Statement Rip Current Statement        SOUTHERN QUEENS  -  Rip Current Statement Rip Current Statement     Air Quality Alert Air Quality Alert        SOUTHWEST SUFFOLK  -  Rip Current Statement Rip Current Statement      

Active alerts

Northern Queens
  Details for Northern Queens Rip Current Statement  +1 additional alert
Southern Queens
  Details for Southern Queens Rip Current Statement  +1 additional alert
Northern Nassau
  Details for Northern Nassau Rip Current Statement
Southern Nassau
  Details for Southern Nassau Rip Current Statement
Northwest Suffolk
  Details for Northwest Suffolk Rip Current Statement
Southwest Suffolk
  Details for Southwest Suffolk Rip Current Statement
Northeast Suffolk
  Details for Northeast Suffolk Rip Current Statement
Southeast Suffolk
  Details for Southeast Suffolk Rip Current Statement


WXM80 ListenWXM80 Stop

You find our weather info also at:

UK Metoffice

WeatherCloud

Weather Underground

Northeastern Weather Network

AWEKAS

Citizen Weather Observer Program (CWOP)

HAMweather, WeatherForYou, PWS Weather


Weather Underground History page Text

Daily Summary for January 9, 2017 Units:  Metric    English   Both
« Previous Day
Next Day »
Daily Weekly Monthly Yearly Custom
  High: Low: Average:
Temperature: -4.4 °C -9.8 °C -7.3 °C
Dew Point: -11 °C -13.8 °C -12.4 °C
Humidity: 84 % 55 % 68 %
Wind Speed: 14 km/h 0 km/h 3.9 km/h
Wind Gust: 46.7 km/h - -
Wind:- - West
Pressure: 1040.9 hPa 1034.4 hPa -
Precipitation: 0 mm    
Historical Graphs
 
 
Tabular Data for January 9, 2017
Time Temperature Dew Point Pressure Wind Wind Speed Wind Gust Humidity Rainfall Rate (Hourly)
00:02 -7.1 °C -12.8 °C 1034.4 hPa WSW 10.6 km/h 46.7 km/h 64 % 0 mm
00:07 -7.2 °C -12.6 °C 1034.8 hPa WNW 12.7 km/h 46.7 km/h 65 % 0 mm
00:12 -7.2 °C -12.8 °C 1034.8 hPa NW 11.6 km/h 46.7 km/h 64 % 0 mm
00:17 -7.2 °C -12.9 °C 1034.8 hPa WNW 12.4 km/h 46.7 km/h 64 % 0 mm
00:22 -7.2 °C -12.7 °C 1034.8 hPa West 11.1 km/h 46.7 km/h 65 % 0 mm
00:27 -7.3 °C -12.9 °C 1034.8 hPa NNW 9.3 km/h 46.7 km/h 64 % 0 mm
00:33 -7.3 °C -12.7 °C 1035.1 hPa NE 4.8 km/h 46.7 km/h 65 % 0 mm
00:38 -7.3 °C -12.9 °C 1034.8 hPa WNW 10.3 km/h 46.7 km/h 64 % 0 mm
00:43 -7.3 °C -13 °C 1035.1 hPa NW 14 km/h 46.7 km/h 64 % 0 mm
00:48 -7.4 °C -12.8 °C 1035.1 hPa WNW 7.6 km/h 46.7 km/h 65 % 0 mm
00:53 -7.4 °C -12.8 °C 1035.1 hPa WNW 13 km/h 46.7 km/h 65 % 0 mm
00:58 -7.4 °C -12.7 °C 1035.1 hPa WNW 8.4 km/h 46.7 km/h 66 % 0 mm
01:03 -7.4 °C -12.7 °C 1035.1 hPa WSW 11.4 km/h 46.7 km/h 66 % 0 mm
01:08 -7.5 °C -12.9 °C 1035.1 hPa West 8.7 km/h 46.7 km/h 65 % 0 mm
01:13 -7.5 °C -12.8 °C 1035.1 hPa WNW 12.4 km/h 46.7 km/h 66 % 0 mm
01:18 -7.6 °C -13 °C 1035.4 hPa NNW 6 km/h 46.7 km/h 65 % 0 mm
01:23 -7.6 °C -12.9 °C 1035.4 hPa WNW 13.4 km/h 46.7 km/h 66 % 0 mm
01:28 -7.7 °C -13.1 °C 1035.4 hPa West 5.6 km/h 46.7 km/h 65 % 0 mm
01:33 -7.7 °C -12.9 °C 1035.4 hPa NW 9.8 km/h 46.7 km/h 66 % 0 mm
01:38 -7.7 °C -13 °C 1035.8 hPa NNW 4.3 km/h 46.7 km/h 66 % 0 mm
01:43 -7.7 °C -13 °C 1035.8 hPa WNW 11.9 km/h 46.7 km/h 66 % 0 mm
01:48 -7.8 °C -13.1 °C 1035.8 hPa NW 9.2 km/h 46.7 km/h 66 % 0 mm
01:54 -7.8 °C -13.1 °C 1036.1 hPa NW 6.9 km/h 46.7 km/h 66 % 0 mm
01:59 -7.8 °C -13.1 °C 1036.1 hPa West 6.1 km/h 46.7 km/h 66 % 0 mm
02:04 -7.8 °C -13.1 °C 1036.1 hPa WSW 3.1 km/h 46.7 km/h 66 % 0 mm
02:09 -7.9 °C -13.1 °C 1036.1 hPa WNW 6.9 km/h 46.7 km/h 66 % 0 mm
02:14 -7.9 °C -13.2 °C 1036.1 hPa West 8.2 km/h 46.7 km/h 66 % 0 mm
02:19 -7.9 °C -13.2 °C 1036.5 hPa NW 4.2 km/h 46.7 km/h 66 % 0 mm
02:24 -8 °C -13.2 °C 1036.5 hPa WNW 4.8 km/h 12.9 km/h 66 % 0 mm
02:29 -8.1 °C -13.3 °C 1036.5 hPa WNW 4.8 km/h 14.5 km/h 66 % 0 mm
02:34 -8.1 °C -13.3 °C 1036.5 hPa WNW 3.2 km/h 16.1 km/h 66 % 0 mm
02:39 -8.1 °C -13.3 °C 1036.5 hPa NNW 7.1 km/h 46.7 km/h 66 % 0 mm
02:44 -8.1 °C -13.3 °C 1036.5 hPa WNW 9.7 km/h 16.1 km/h 66 % 0 mm
02:49 -8.1 °C -13.3 °C 1036.5 hPa NW 10 km/h 46.7 km/h 66 % 0 mm
02:54 -8.1 °C -13.4 °C 1036.8 hPa West 11.3 km/h 19.3 km/h 66 % 0 mm
02:59 -8.2 °C -13.6 °C 1036.5 hPa NW 3.2 km/h 46.7 km/h 65 % 0 mm
03:04 -8.2 °C -13.8 °C 1036.5 hPa West 9.2 km/h 46.7 km/h 64 % 0 mm
03:09 -8.2 °C -13.8 °C 1036.5 hPa WNW 8 km/h 46.7 km/h 64 % 0 mm
03:14 -8.2 °C -13.7 °C 1036.5 hPa NW 5.5 km/h 46.7 km/h 65 % 0 mm
03:19 -8.3 °C -13.7 °C 1036.5 hPa WSW 3.1 km/h 46.7 km/h 65 % 0 mm
03:24 -8.3 °C -13.7 °C 1036.5 hPa NW 3.7 km/h 46.7 km/h 65 % 0 mm
03:29 -8.4 °C -13.6 °C 1036.5 hPa NW 6.8 km/h 46.7 km/h 66 % 0 mm
03:34 -8.4 °C -13.6 °C 1036.5 hPa West 4.2 km/h 46.7 km/h 66 % 0 mm
03:39 -8.4 °C -13.7 °C 1036.5 hPa WNW 1.4 km/h 46.7 km/h 66 % 0 mm
03:45 -8.4 °C -13.7 °C 1036.5 hPa WNW 6.6 km/h 46.7 km/h 66 % 0 mm
03:50 -8.5 °C -13.6 °C 1036.8 hPa SW 4.5 km/h 46.7 km/h 67 % 0 mm
03:55 -8.5 °C -13.6 °C 1036.8 hPa West 2.3 km/h 46.7 km/h 67 % 0 mm
04:00 -8.6 °C -13.6 °C 1036.5 hPa WSW 7.6 km/h 46.7 km/h 67 % 0 mm
04:05 -8.6 °C -13.7 °C 1036.8 hPa West 4.5 km/h 46.7 km/h 67 % 0 mm
04:10 -8.6 °C -13.4 °C 1036.8 hPa West 5.1 km/h 46.7 km/h 68 % 0 mm
04:15 -8.6 °C -13.4 °C 1036.8 hPa West 6 km/h 46.7 km/h 68 % 0 mm
04:20 -8.7 °C -13.5 °C 1037.1 hPa West 9.2 km/h 46.7 km/h 68 % 0 mm
04:25 -8.7 °C -13.5 °C 1037.1 hPa WNW 6.4 km/h 46.7 km/h 68 % 0 mm
04:30 -8.6 °C -13.3 °C 1037.1 hPa WNW 7.1 km/h 46.7 km/h 69 % 0 mm
04:35 -8.6 °C -13.3 °C 1037.1 hPa West 5.5 km/h 46.7 km/h 69 % 0 mm
04:40 -8.7 °C -13.3 °C 1037.1 hPa WSW 3.9 km/h 46.7 km/h 69 % 0 mm
04:45 -8.7 °C -13.3 °C 1037.1 hPa West 8.2 km/h 46.7 km/h 69 % 0 mm
04:51 -8.7 °C -13.3 °C 1037.1 hPa West 6.1 km/h 46.7 km/h 69 % 0 mm
04:56 -8.6 °C -13.3 °C 1037.5 hPa West 4.5 km/h 46.7 km/h 69 % 0 mm
05:01 -8.6 °C -13.3 °C 1037.1 hPa WNW 5.5 km/h 46.7 km/h 69 % 0 mm
05:06 -8.6 °C -13.3 °C 1037.5 hPa NW 10 km/h 46.7 km/h 69 % 0 mm
05:11 -8.6 °C -13.3 °C 1037.5 hPa NW 7.9 km/h 46.7 km/h 69 % 0 mm
05:16 -8.6 °C -13.1 °C 1037.8 hPa WNW 7.2 km/h 46.7 km/h 70 % 0 mm
05:21 -8.6 °C -13.1 °C 1037.8 hPa West 8.7 km/h 46.7 km/h 70 % 0 mm
05:26 -8.6 °C -13.2 °C 1037.8 hPa West 4.8 km/h 46.7 km/h 69 % 0 mm
05:31 -8.6 °C -13.2 °C 1037.8 hPa NW 11.6 km/h 46.7 km/h 69 % 0 mm
05:36 -8.5 °C -13.2 °C 1037.8 hPa WNW 3.1 km/h 46.7 km/h 69 % 0 mm
05:41 -8.5 °C -13.2 °C 1037.8 hPa WNW 5 km/h 46.7 km/h 69 % 0 mm
05:46 -8.5 °C -13.2 °C 1037.8 hPa NNW 7.9 km/h 46.7 km/h 69 % 0 mm
05:51 -8.6 °C -13.4 °C 1037.8 hPa WNW 6.6 km/h 46.7 km/h 68 % 0 mm
05:56 -8.6 °C -13.4 °C 1037.8 hPa WNW 9.5 km/h 46.7 km/h 68 % 0 mm
06:01 -8.6 °C -13.2 °C 1037.8 hPa WNW 5.6 km/h 46.7 km/h 69 % 0 mm
06:06 -8.6 °C -13.2 °C 1038.1 hPa WNW 6.6 km/h 46.7 km/h 69 % 0 mm
06:12 -8.6 °C -13.4 °C 1037.8 hPa NW 7.4 km/h 46.7 km/h 68 % 0 mm
06:17 -8.6 °C -13.4 °C 1037.8 hPa WNW 3.1 km/h 46.7 km/h 68 % 0 mm
06:22 -8.6 °C -13.3 °C 1037.8 hPa WNW 9.2 km/h 46.7 km/h 69 % 0 mm
06:27 -8.6 °C -13.3 °C 1037.8 hPa NNW 5.8 km/h 46.7 km/h 69 % 0 mm
06:32 -8.7 °C -13.3 °C 1037.8 hPa NW 6.1 km/h 46.7 km/h 69 % 0 mm
06:37 -8.7 °C -13.5 °C 1037.8 hPa WSW 5.8 km/h 46.7 km/h 68 % 0 mm
06:42 -8.7 °C -13.4 °C 1037.8 hPa WNW 4.5 km/h 46.7 km/h 69 % 0 mm
06:47 -8.7 °C -13.4 °C 1037.8 hPa WNW 5.5 km/h 46.7 km/h 69 % 0 mm
06:52 -8.8 °C -13.6 °C 1037.8 hPa WNW 3.1 km/h 46.7 km/h 68 % 0 mm
06:57 -8.8 °C -13.5 °C 1037.5 hPa NW 3.5 km/h 46.7 km/h 69 % 0 mm
07:02 -8.8 °C -13.5 °C 1037.8 hPa NW 2.1 km/h 46.7 km/h 69 % 0 mm
07:07 -8.8 °C -13.5 °C 1037.5 hPa WNW 2.1 km/h 46.7 km/h 69 % 0 mm
07:12 -8.9 °C -13.4 °C 1037.8 hPa NW 4.8 km/h 46.7 km/h 70 % 0 mm
07:17 -8.9 °C -13.4 °C 1037.8 hPa WNW 5.8 km/h 46.7 km/h 70 % 0 mm
07:22 -8.9 °C -13.4 °C 1037.8 hPa NW 2.9 km/h 46.7 km/h 70 % 0 mm
07:27 -8.9 °C -13.2 °C 1037.8 hPa WNW 4.5 km/h 46.7 km/h 71 % 0 mm
07:32 -8.9 °C -13.2 °C 1038.1 hPa WNW 3.5 km/h 46.7 km/h 71 % 0 mm
07:38 -8.9 °C -13.2 °C 1038.1 hPa WSW 3.7 km/h 46.7 km/h 71 % 0 mm
07:43 -8.8 °C -13.2 °C 1038.1 hPa WSW 1.6 km/h 46.7 km/h 71 % 0 mm
07:48 -8.8 °C -13.2 °C 1038.1 hPa West 3.7 km/h 46.7 km/h 71 % 0 mm
07:53 -8.8 °C -13.3 °C 1038.1 hPa WNW 4.2 km/h 46.7 km/h 70 % 0 mm
07:58 -8.7 °C -13.2 °C 1038.1 hPa West 4.5 km/h 46.7 km/h 70 % 0 mm
08:01 -8.7 °C -13.3 °C 1038.1 hPa West 2.6 km/h 46.7 km/h 69 % 0 mm
08:06 -8.6 °C -13.2 °C 1038.1 hPa West 1 km/h 46.7 km/h 69 % 0 mm
08:11 -8.5 °C -13.2 °C 1038.5 hPa West 1.9 km/h 46.7 km/h 69 % 0 mm
08:16 -8.4 °C -13.1 °C 1038.5 hPa SW 4.3 km/h 46.7 km/h 69 % 0 mm
08:21 -8.3 °C -12.8 °C 1038.5 hPa SW 0.2 km/h 46.7 km/h 70 % 0 mm
08:26 -8.3 °C -12.8 °C 1038.8 hPa SW 2.4 km/h 46.7 km/h 70 % 0 mm
08:31 -8.2 °C -12.5 °C 1038.8 hPa SW 2.3 km/h 46.7 km/h 71 % 0 mm
08:36 -8.1 °C -12.4 °C 1039.2 hPa SW 4.3 km/h 46.7 km/h 71 % 0 mm
08:41 -8 °C -12.5 °C 1039.2 hPa WSW 3.4 km/h 46.7 km/h 70 % 0 mm
08:46 -7.8 °C -12.3 °C 1039.2 hPa SW 5.5 km/h 46.7 km/h 70 % 0 mm
08:51 -7.7 °C -12.2 °C 1039.2 hPa WSW 2.6 km/h 46.7 km/h 70 % 0 mm
08:56 -7.6 °C -12.1 °C 1039.5 hPa SW 6.3 km/h 46.7 km/h 70 % 0 mm
09:01 -7.4 °C -12 °C 1039.5 hPa WSW 5.8 km/h 46.7 km/h 70 % 0 mm
09:06 -7.3 °C -12 °C 1039.5 hPa West 3.7 km/h 46.7 km/h 69 % 0 mm
09:12 -7.1 °C -11.8 °C 1039.8 hPa SW 4.8 km/h 46.7 km/h 69 % 0 mm
09:17 -6.9 °C -11.7 °C 1039.8 hPa WNW 2.7 km/h 46.7 km/h 69 % 0 mm
09:22 -6.8 °C -11.8 °C 1040.2 hPa WNW 3.4 km/h 46.7 km/h 68 % 0 mm
09:27 -6.7 °C -11.7 °C 1040.2 hPa West 7.2 km/h 46.7 km/h 68 % 0 mm
09:32 -6.7 °C -11.8 °C 1040.2 hPa WSW 6.8 km/h 46.7 km/h 67 % 0 mm
09:37 -6.6 °C -11.9 °C 1040.5 hPa WNW 5.3 km/h 46.7 km/h 66 % 0 mm
09:42 -6.6 °C -12.1 °C 1040.5 hPa WSW 6.9 km/h 46.7 km/h 65 % 0 mm
09:47 -6.6 °C -12.1 °C 1040.5 hPa WNW 3.9 km/h 46.7 km/h 65 % 0 mm
09:52 -6.6 °C -12.1 °C 1040.5 hPa WSW 5.6 km/h 46.7 km/h 65 % 0 mm
09:57 -6.5 °C -12 °C 1040.5 hPa NW 9 km/h 46.7 km/h 65 % 0 mm
10:02 -6.4 °C -11.9 °C 1040.9 hPa West 7.9 km/h 46.7 km/h 65 % 0 mm
10:07 -6.4 °C -11.9 °C 1040.5 hPa NW 7.4 km/h 46.7 km/h 65 % 0 mm
10:13 -6.3 °C -11.8 °C 1040.5 hPa NW 5.8 km/h 46.7 km/h 65 % 0 mm
10:18 -6.2 °C -11.9 °C 1040.5 hPa SW 6.1 km/h 46.7 km/h 64 % 0 mm
10:23 -6.2 °C -11.9 °C 1040.2 hPa WSW 3.2 km/h 46.7 km/h 64 % 0 mm
10:28 -6.1 °C -11.9 °C 1040.5 hPa WNW 1.1 km/h 46.7 km/h 63 % 0 mm
10:33 -6 °C -11.9 °C 1040.2 hPa WSW 5 km/h 46.7 km/h 63 % 0 mm
10:38 -5.9 °C -11.6 °C 1040.2 hPa SW 5.1 km/h 46.7 km/h 64 % 0 mm
10:43 -5.8 °C -11.8 °C 1040.2 hPa West 5.8 km/h 46.7 km/h 63 % 0 mm
10:48 -5.8 °C -11.7 °C 1039.8 hPa West 5.6 km/h 46.7 km/h 63 % 0 mm
10:53 -5.9 °C -12 °C 1039.8 hPa NW 5.8 km/h 46.7 km/h 62 % 0 mm
10:58 -5.8 °C -11.8 °C 1039.8 hPa West 3.1 km/h 46.7 km/h 63 % 0 mm
11:03 -5.8 °C -11.7 °C 1039.8 hPa WNW 8.2 km/h 46.7 km/h 63 % 0 mm
11:08 -5.7 °C -11.8 °C 1039.5 hPa SSW 1.8 km/h 46.7 km/h 62 % 0 mm
11:13 -5.5 °C -11.6 °C 1039.5 hPa NW 6 km/h 46.7 km/h 62 % 0 mm
11:18 -5.4 °C -11.7 °C 1039.2 hPa SSW 3.2 km/h 46.7 km/h 61 % 0 mm
11:23 -5.3 °C -11.6 °C 1039.2 hPa SW 6.3 km/h 46.7 km/h 61 % 0 mm
11:28 -5.2 °C -11.8 °C 1039.2 hPa WSW 3.9 km/h 46.7 km/h 60 % 0 mm
11:33 -5.3 °C -11.8 °C 1039.2 hPa West 8.2 km/h 46.7 km/h 60 % 0 mm
11:38 -5.3 °C -11.7 °C 1039.2 hPa WSW 4.3 km/h 46.7 km/h 61 % 0 mm
11:43 -5.2 °C -11.4 °C 1038.8 hPa West 5.5 km/h 46.7 km/h 62 % 0 mm
11:48 -5.2 °C -11.3 °C 1038.8 hPa SW 6.1 km/h 46.7 km/h 62 % 0 mm
11:49 -5.2 °C -11.3 °C 1038.8 hPa SW 6 km/h 46.7 km/h 62 % 0 mm
11:54 -5.2 °C -11.3 °C 1038.8 hPa SW 5.1 km/h 46.7 km/h 62 % 0 mm
11:59 -5.1 °C -11.4 °C 1038.5 hPa WSW 4.5 km/h 46.7 km/h 61 % 0 mm
12:04 -5.1 °C -11.4 °C 1038.5 hPa West 2.9 km/h 46.7 km/h 61 % 0 mm
12:09 -5.1 °C -11.5 °C 1038.5 hPa SSW 4.5 km/h 46.7 km/h 61 % 0 mm
12:14 -5.1 °C -11.7 °C 1038.1 hPa West 3.5 km/h 46.7 km/h 60 % 0 mm
12:19 -5.2 °C -11.7 °C 1038.1 hPa West 4 km/h 46.7 km/h 60 % 0 mm
12:24 -5.1 °C -11.7 °C 1038.1 hPa West 1.6 km/h 6.4 km/h 60 % 0 mm
12:29 -5.1 °C -11.6 °C 1038.1 hPa West 1.6 km/h 9.7 km/h 60 % 0 mm
12:34 -5 °C -11.6 °C 1038.1 hPa WNW 1.6 km/h 9.7 km/h 60 % 0 mm
12:39 -5 °C -11.6 °C 1037.8 hPa WNW 1.6 km/h 6.4 km/h 60 % 0 mm
12:44 -5 °C -11.6 °C 1038.1 hPa WNW 3.2 km/h 4.8 km/h 60 % 0 mm
12:49 -4.9 °C -11.5 °C 1037.8 hPa Calm   4.8 km/h 60 % 0 mm
12:54 -4.9 °C -11.5 °C 1037.8 hPa West 3.2 km/h 8 km/h 60 % 0 mm
12:59 -4.9 °C -11.7 °C 1037.8 hPa West 1.6 km/h 46.7 km/h 59 % 0 mm
13:04 -4.8 °C -11.4 °C 1037.8 hPa West 1.3 km/h 46.7 km/h 60 % 0 mm
13:09 -4.8 °C -11.6 °C 1038.1 hPa SW 3.4 km/h 46.7 km/h 59 % 0 mm
13:14 -4.7 °C -11.5 °C 1038.1 hPa WNW 3.7 km/h 46.7 km/h 59 % 0 mm
13:19 -4.7 °C -11.5 °C 1038.1 hPa West 2.6 km/h 46.7 km/h 59 % 0 mm
13:24 -4.7 °C -11.4 °C 1038.1 hPa WSW 5.6 km/h 46.7 km/h 59 % 0 mm
13:29 -4.7 °C -11.4 °C 1038.5 hPa WSW 1.8 km/h 46.7 km/h 59 % 0 mm
13:34 -4.7 °C -11.3 °C 1038.5 hPa WSW 1 km/h 46.7 km/h 60 % 0 mm
13:39 -4.6 °C -11.4 °C 1038.5 hPa WSW 4.3 km/h 46.7 km/h 59 % 0 mm
13:45 -4.7 °C -11.4 °C 1038.1 hPa WNW 8 km/h 46.7 km/h 59 % 0 mm
13:50 -4.7 °C -11.4 °C 1038.1 hPa WSW 4.8 km/h 46.7 km/h 59 % 0 mm
13:55 -4.6 °C -11.4 °C 1038.1 hPa West 2.3 km/h 46.7 km/h 59 % 0 mm
14:00 -4.5 °C -11.3 °C 1038.1 hPa WSW 3.1 km/h 46.7 km/h 59 % 0 mm
14:05 -4.5 °C -11.3 °C 1037.8 hPa West 5.8 km/h 46.7 km/h 59 % 0 mm
14:10 -4.5 °C -11.3 °C 1037.8 hPa West 4.5 km/h 46.7 km/h 59 % 0 mm
14:15 -4.5 °C -11.3 °C 1037.8 hPa West 3.4 km/h 46.7 km/h 59 % 0 mm
14:20 -4.5 °C -11.1 °C 1037.8 hPa West 5.3 km/h 46.7 km/h 60 % 0 mm
14:25 -4.5 °C -11.3 °C 1038.1 hPa Calm   46.7 km/h 59 % 0 mm
14:30 -4.5 °C -11.5 °C 1037.8 hPa SW 4.3 km/h 46.7 km/h 58 % 0 mm
14:35 -4.5 °C -11.5 °C 1037.8 hPa West 5.6 km/h 46.7 km/h 58 % 0 mm
14:40 -4.5 °C -11.7 °C 1037.8 hPa WSW 2.7 km/h 46.7 km/h 57 % 0 mm
14:45 -4.5 °C -11.9 °C 1037.8 hPa South 2.3 km/h 46.7 km/h 56 % 0 mm
14:50 -4.6 °C -12.2 °C 1037.8 hPa SW 4.7 km/h 46.7 km/h 55 % 0 mm
14:55 -4.6 °C -12.2 °C 1037.8 hPa SW 3.5 km/h 46.7 km/h 55 % 0 mm
15:01 -4.6 °C -12.1 °C 1037.8 hPa WSW 4 km/h 46.7 km/h 56 % 0 mm
15:06 -4.6 °C -12 °C 1037.8 hPa WSW 3.9 km/h 46.7 km/h 56 % 0 mm
15:11 -4.6 °C -11.8 °C 1037.8 hPa SSW 3.5 km/h 46.7 km/h 57 % 0 mm
15:16 -4.6 °C -12 °C 1037.8 hPa SW 1 km/h 46.7 km/h 56 % 0 mm
15:21 -4.5 °C -11.9 °C 1037.5 hPa SW 1.4 km/h 46.7 km/h 56 % 0 mm
15:26 -4.4 °C -11.9 °C 1037.8 hPa South 2.6 km/h 46.7 km/h 56 % 0 mm
15:31 -4.4 °C -11.9 °C 1037.5 hPa SSW 0.3 km/h 46.7 km/h 56 % 0 mm
15:36 -4.4 °C -11.9 °C 1037.8 hPa SW 1.1 km/h 46.7 km/h 56 % 0 mm
15:41 -4.4 °C -11.9 °C 1037.8 hPa Calm   46.7 km/h 56 % 0 mm
15:46 -4.4 °C -11.7 °C 1037.8 hPa SW 0.8 km/h 46.7 km/h 57 % 0 mm
15:51 -4.4 °C -11.9 °C 1037.8 hPa SW 4.2 km/h 46.7 km/h 56 % 0 mm
15:56 -4.5 °C -11.7 °C 1037.8 hPa SW 4 km/h 46.7 km/h 57 % 0 mm
16:01 -4.6 °C -12 °C 1037.8 hPa SW 1.4 km/h 46.7 km/h 56 % 0 mm
16:07 -4.7 °C -12.1 °C 1038.1 hPa WSW 2.4 km/h 46.7 km/h 56 % 0 mm
16:12 -4.8 °C -12 °C 1038.1 hPa SW 2.3 km/h 46.7 km/h 57 % 0 mm
16:17 -4.9 °C -11.9 °C 1037.8 hPa South 5.3 km/h 46.7 km/h 58 % 0 mm
16:22 -5.1 °C -12.1 °C 1037.8 hPa SSW 1 km/h 46.7 km/h 58 % 0 mm
16:27 -5.2 °C -11.9 °C 1037.8 hPa Calm   46.7 km/h 59 % 0 mm
16:32 -5.3 °C -12.1 °C 1037.8 hPa WSW 1.3 km/h 46.7 km/h 59 % 0 mm
16:37 -5.4 °C -11.9 °C 1037.8 hPa WSW 0.2 km/h 46.7 km/h 60 % 0 mm
16:42 -5.4 °C -11.8 °C 1037.8 hPa WSW 0.2 km/h 46.7 km/h 61 % 0 mm
16:47 -5.6 °C -11.9 °C 1037.8 hPa SSW 2.3 km/h 46.7 km/h 61 % 0 mm
16:48 -5.6 °C -11.9 °C 1037.8 hPa SSW 1 km/h 46.7 km/h 61 % 0 mm
16:53 -5.7 °C -11.8 °C 1037.8 hPa SSW 0.3 km/h 46.7 km/h 62 % 0 mm
16:58 -5.8 °C -11.9 °C 1037.5 hPa SSW 0.3 km/h 46.7 km/h 62 % 0 mm
17:03 -5.9 °C -12 °C 1037.5 hPa Calm   46.7 km/h 62 % 0 mm
17:08 -6 °C -11.9 °C 1037.5 hPa SSW 1.4 km/h 46.7 km/h 63 % 0 mm
17:13 -6.1 °C -11.9 °C 1037.5 hPa Calm   46.7 km/h 63 % 0 mm
17:18 -6.2 °C -12.1 °C 1037.5 hPa Calm   46.7 km/h 63 % 0 mm
17:23 -6.2 °C -12.3 °C 1037.8 hPa Calm   46.7 km/h 62 % 0 mm
17:28 -6.3 °C -12.1 °C 1037.5 hPa Calm   46.7 km/h 64 % 0 mm
17:33 -6.4 °C -12.2 °C 1037.5 hPa Calm   46.7 km/h 64 % 0 mm
17:38 -6.6 °C -12.2 °C 1037.5 hPa Calm   46.7 km/h 64 % 0 mm
17:43 -6.7 °C -12.4 °C 1037.5 hPa Calm   46.7 km/h 64 % 0 mm
17:49 -6.8 °C -12.1 °C 1037.5 hPa Calm   46.7 km/h 66 % 0 mm
17:54 -7 °C -12.1 °C 1037.5 hPa Calm   46.7 km/h 67 % 0 mm
17:59 -7.1 °C -12.4 °C 1037.5 hPa Calm   46.7 km/h 66 % 0 mm
18:04 -7.3 °C -12.4 °C 1037.8 hPa Calm   46.7 km/h 67 % 0 mm
18:09 -7.4 °C -12.3 °C 1037.5 hPa Calm   46.7 km/h 68 % 0 mm
18:14 -7.5 °C -12.4 °C 1037.8 hPa Calm   46.7 km/h 68 % 0 mm
18:19 -7.7 °C -12.2 °C 1037.8 hPa SSW 1.6 km/h 3.2 km/h 70 % 0 mm
18:24 -7.8 °C -12.1 °C 1038.1 hPa Calm   1.6 km/h 71 % 0 mm
18:29 -7.9 °C -12.2 °C 1037.8 hPa Calm   46.7 km/h 71 % 0 mm
18:34 -8 °C -12.3 °C 1037.8 hPa Calm     71 % 0 mm
18:39 -8.1 °C -12.4 °C 1037.8 hPa Calm     71 % 0 mm
18:44 -8.2 °C -12.6 °C 1037.8 hPa Calm     71 % 0 mm
18:49 -8.3 °C -12.5 °C 1037.8 hPa Calm     72 % 0 mm
18:54 -8.4 °C -12.6 °C 1037.8 hPa Calm   46.7 km/h 72 % 0 mm
18:59 -8.6 °C -12.6 °C 1037.8 hPa Calm   46.7 km/h 73 % 0 mm
19:04 -8.7 °C -12.6 °C 1037.8 hPa Calm   46.7 km/h 73 % 0 mm
19:09 -8.8 °C -12.7 °C 1037.8 hPa Calm   46.7 km/h 73 % 0 mm
19:14 -8.8 °C -12.6 °C 1037.8 hPa Calm   46.7 km/h 74 % 0 mm
19:19 -8.9 °C -12.7 °C 1037.8 hPa Calm   46.7 km/h 74 % 0 mm
19:24 -9.1 °C -12.8 °C 1037.8 hPa Calm   46.7 km/h 74 % 0 mm
19:29 -9.2 °C -12.9 °C 1037.8 hPa Calm   46.7 km/h 74 % 0 mm
19:34 -9.2 °C -13 °C 1037.8 hPa Calm   46.7 km/h 74 % 0 mm
19:40 -9.3 °C -12.9 °C 1037.8 hPa Calm   46.7 km/h 75 % 0 mm
19:45 -9.4 °C -13 °C 1037.8 hPa Calm   46.7 km/h 75 % 0 mm
19:50 -9.5 °C -12.9 °C 1037.8 hPa Calm   46.7 km/h 76 % 0 mm
19:55 -9.6 °C -13 °C 1037.8 hPa Calm   46.7 km/h 76 % 0 mm
20:00 -9.6 °C -13.1 °C 1037.8 hPa Calm   46.7 km/h 76 % 0 mm
20:05 -9.7 °C -12.9 °C 1037.8 hPa Calm   46.7 km/h 77 % 0 mm
20:10 -9.7 °C -13 °C 1037.5 hPa Calm   46.7 km/h 77 % 0 mm
20:15 -9.7 °C -12.8 °C 1037.5 hPa Calm   46.7 km/h 78 % 0 mm
20:20 -9.8 °C -12.7 °C 1037.5 hPa Calm   46.7 km/h 79 % 0 mm
20:25 -9.7 °C -12.5 °C 1037.5 hPa Calm   46.7 km/h 80 % 0 mm
20:30 -9.7 °C -12.4 °C 1037.5 hPa Calm   46.7 km/h 81 % 0 mm
20:35 -9.7 °C -12.3 °C 1037.1 hPa Calm   46.7 km/h 81 % 0 mm
20:40 -9.6 °C -12.1 °C 1037.5 hPa Calm   46.7 km/h 82 % 0 mm
20:45 -9.6 °C -12.1 °C 1037.1 hPa Calm   46.7 km/h 82 % 0 mm
20:50 -9.4 °C -11.8 °C 1037.1 hPa Calm   46.7 km/h 83 % 0 mm
20:55 -9.4 °C -11.7 °C 1037.1 hPa Calm   46.7 km/h 83 % 0 mm
21:00 -9.3 °C -11.7 °C 1037.5 hPa Calm   46.7 km/h 83 % 0 mm
21:06 -9.3 °C -11.6 °C 1037.5 hPa Calm   46.7 km/h 83 % 0 mm
21:11 -9.3 °C -11.6 °C 1037.5 hPa Calm   46.7 km/h 83 % 0 mm
21:16 -9.3 °C -11.8 °C 1037.5 hPa Calm   46.7 km/h 82 % 0 mm
21:21 -9.3 °C -11.8 °C 1037.5 hPa Calm   46.7 km/h 82 % 0 mm
21:26 -9.3 °C -11.8 °C 1037.5 hPa Calm   46.7 km/h 82 % 0 mm
21:29 -9.3 °C -11.8 °C 1037.5 hPa Calm   46.7 km/h 82 % 0 mm
21:34 -9.4 °C -11.9 °C 1037.8 hPa Calm   46.7 km/h 82 % 0 mm
21:39 -9.4 °C -11.9 °C 1037.8 hPa Calm   46.7 km/h 82 % 0 mm
21:45 -9.4 °C -11.9 °C 1037.8 hPa SSW 1.4 km/h 46.7 km/h 82 % 0 mm
21:50 -9.5 °C -12 °C 1037.8 hPa SSW 1.4 km/h 46.7 km/h 82 % 0 mm
21:55 -9.6 °C -12.1 °C 1037.8 hPa SSW 2.4 km/h 46.7 km/h 82 % 0 mm
22:00 -9.6 °C -12.1 °C 1038.1 hPa SW 1.4 km/h 46.7 km/h 82 % 0 mm
22:05 -9.6 °C -11.9 °C 1038.1 hPa SW 2.3 km/h 46.7 km/h 83 % 0 mm
22:10 -9.6 °C -11.9 °C 1037.8 hPa SW 2.4 km/h 46.7 km/h 83 % 0 mm
22:15 -9.6 °C -11.9 °C 1037.8 hPa SW 1.9 km/h 46.7 km/h 83 % 0 mm
22:20 -9.5 °C -11.7 °C 1037.8 hPa SW 3.5 km/h 46.7 km/h 84 % 0 mm
22:25 -9.4 °C -11.7 °C 1037.8 hPa WSW 2.9 km/h 46.7 km/h 84 % 0 mm
22:30 -9.3 °C -11.6 °C 1037.8 hPa SW 5.3 km/h 46.7 km/h 84 % 0 mm
22:35 -9.2 °C -11.4 °C 1037.8 hPa SW 4.8 km/h 46.7 km/h 84 % 0 mm
22:40 -9.1 °C -11.3 °C 1038.1 hPa WSW 4.2 km/h 46.7 km/h 84 % 0 mm
22:45 -8.9 °C -11.3 °C 1038.1 hPa SW 4.7 km/h 46.7 km/h 83 % 0 mm
22:50 -8.8 °C -11.2 °C 1038.1 hPa SW 4.7 km/h 46.7 km/h 83 % 0 mm
22:55 -8.7 °C -11.2 °C 1038.1 hPa WSW 6.1 km/h 46.7 km/h 82 % 0 mm
23:00 -8.5 °C -11 °C 1038.1 hPa SW 4.7 km/h 46.7 km/h 82 % 0 mm
23:06 -8.4 °C -11.1 °C 1038.1 hPa SW 3.7 km/h 46.7 km/h 81 % 0 mm
23:11 -8.3 °C -11.2 °C 1038.1 hPa SW 2.9 km/h 46.7 km/h 80 % 0 mm
23:16 -8.2 °C -11.1 °C 1037.8 hPa SW 1.8 km/h 46.7 km/h 80 % 0 mm
23:21 -8.2 °C -11.2 °C 1037.8 hPa SW 2.9 km/h 46.7 km/h 79 % 0 mm
23:26 -8.1 °C -11.1 °C 1037.8 hPa SW 2.9 km/h 46.7 km/h 79 % 0 mm
23:31 -8.1 °C -11.3 °C 1037.5 hPa SW 3.4 km/h 46.7 km/h 78 % 0 mm
23:36 -8.1 °C -11.2 °C 1037.5 hPa SW 3.2 km/h 46.7 km/h 78 % 0 mm
23:41 -8.1 °C -11.2 °C 1037.5 hPa SW 2.1 km/h 46.7 km/h 78 % 0 mm
23:46 -8.1 °C -11.2 °C 1037.5 hPa WSW 1.6 km/h 46.7 km/h 78 % 0 mm
23:51 -8.1 °C -11.4 °C 1037.5 hPa WSW 1.8 km/h 46.7 km/h 77 % 0 mm
23:56 -8.1 °C -11.4 °C 1037.1 hPa Calm   46.7 km/h 77 % 0 mm
Crab Meadow Weather
Compliments of Weather Underground - 3 mb

Script developed by  Jim McMurry - jmcmurry@mwt.net Adapted for the template by  Wim van der Kuil - Leuven-Template.eu

Astronomy: It takes Saturn exactly 29.46 years to travel once around the Sun.